User: anonymous   Login
Location: Unspecified
(0.0000°N, 0.0000°E)
Time: 04:14:24
(UTC+00:00)
Language:

AT&T T-16 - Orbit

View from above orbital plane
View from above orbital plane
View from above satellite
View from above satellite

Ground track
Ground track

The orbit is defined by the following mean orbital elements,

1 44334U          26145.35114318 +.00000000 +00000-0 +00000-0 0 00005
2 44334   0.0747 175.0326 0003177 228.7182 332.6031  1.00271261    08
Epoch (UTC): 25 May 2026 08:25:38
Eccentricity: 0.0003177
inclination: 0.0747°
perigee height: 35773 km
apogee height: 35800 km
right ascension of ascending node: 175.0326°
argument of perigee: 228.7182°
revolutions per day: 1.00271261
mean anomaly at epoch: 332.6031°

The dashed part of the orbit path shows where the satellite is in the earth's shadow,  

DLR